Theta_e
314 315 316 317 317 318 318 319 320 321 323 324 325 325 327 328 327 329 329 329 331 333 334 334 333 334 337 338 338 340 340 342 342 342 343 343 343 343 343 341 340 340
314 314 315 316 316 317 317 318 319 319 320 321 322 323 324 325 325 326 328 329 330 331 333 334 333 333 335 336 337 338 339 340 342 341 341 342 342 342 343 342 342 341
313 313 314 315 315 316 316 316 317 318 318 318 320 321 321 321 322 323 324 327 329 330 331 332 333 333 335 335 335 336 338 339 341 341 341 341 341 341 342 342 341 341
312 313 313 314 314 315 315 316 316 317 317 316 316 318 319 318 319 320 321 323 325 327 329 330 331 333 335 336 335 335 336 337 338 340 341 341 341 341 342 341 339 339
312 312 313 313 313 314 314 315 315 315 317 317 315 316 318 318 317 318 319 320 322 322 324 326 329 332 334 336 336 335 335 335 337 338 339 340 341 341 341 341 340 340
312 312 312 312 313 313 314 314 315 314 315 316 316 316 317 318 318 318 317 318 320 320 321 324 327 330 332 334 335 335 335 335 336 336 336 338 339 340 340 340 341 341
312 312 312 312 312 313 313 314 314 314 315 315 316 316 317 317 318 319 318 317 317 318 320 323 325 327 329 331 333 334 335 336 336 336 335 336 337 338 339 339 340 340
311 312 312 312 313 313 314 314 314 315 315 315 315 316 317 317 317 318 318 317 317 317 318 320 322 324 326 328 330 331 333 335 335 335 335 335 336 337 337 338 339 339
311 312 312 313 313 314 314 314 315 315 315 315 315 315 316 316 317 317 318 318 318 317 317 317 318 321 323 326 327 329 330 332 333 334 334 335 335 336 336 337 337 337
312 312 313 313 314 314 315 315 315 316 316 316 316 316 316 316 316 317 317 318 318 319 318 317 316 318 320 322 324 326 328 329 330 332 333 333 334 334 335 336 336 337
312 313 313 314 314 315 315 316 316 316 316 317 317 317 317 317 317 317 317 317 318 318 319 318 317 317 318 320 321 324 326 327 328 329 330 331 331 332 333 334 335 336
312 312 313 314 314 315 316 316 316 317 317 317 317 317 317 318 317 317 317 317 317 318 318 319 319 318 319 320 321 322 324 326 327 328 328 329 329 330 331 333 334 334
311 312 312 313 314 315 316 316 316 316 317 317 317 317 318 318 318 318 318 318 318 317 317 318 318 319 319 320 321 322 323 325 325 326 327 328 328 329 330 331 332 333
311 311 312 313 314 315 316 316 316 315 316 316 317 317 317 318 318 318 318 318 318 318 318 318 318 318 319 320 321 321 322 323 324 324 325 326 327 328 328 329 330 331
311 312 312 313 314 315 315 315 315 315 315 315 316 316 316 317 318 318 318 318 318 318 318 318 318 319 319 319 319 321 321 321 321 322 323 324 325 326 326 327 328 329
311 311 312 313 314 314 314 314 314 314 314 314 315 315 315 315 317 317 318 319 318 318 318 318 318 318 319 318 318 319 320 321 321 321 321 322 323 323 324 325 326 327
310 311 312 312 313 313 313 313 313 313 314 314 314 314 314 314 315 316 318 319 318 318 318 318 318 318 318 317 316 317 317 319 320 320 321 321 321 322 323 324 324 325
310 311 312 312 312 312 312 312 312 313 313 313 314 313 313 313 314 315 317 318 318 318 318 317 317 317 317 317 316 316 315 316 318 319 320 321 321 321 322 323 323 324
309 310 311 311 311 311 311 312 312 312 312 312 312 312 312 312 313 314 315 316 318 317 316 315 314 315 316 316 316 316 316 316 317 318 319 319 320 320 320 321 322 323
309 310 310 310 310 310 311 311 311 311 310 310 311 311 311 311 312 312 312 314 315 314 313 312 312 312 314 315 315 315 316 316 317 318 319 319 319 320 320 320 320 321
308 308 309 308 308 309 310 310 310 309 308 308 309 310 310 310 310 310 310 312 312 311 310 310 310 310 312 313 314 314 315 316 318 319 320 319 319 320 320 320 320 320
307 307 307 307 307 309 309 309 308 308 308 308 308 309 310 310 310 310 309 310 310 310 309 308 307 308 309 312 313 313 314 315 318 319 320 320 320 320 320 320 320 320
307 307 307 307 307 308 308 308 308 308 308 307 308 308 309 309 309 310 309 309 309 309 309 307 305 305 306 308 310 311 312 314 316 317 318 319 320 320 320 320 320 320
307 307 307 306 306 306 307 307 307 307 307 307 308 308 308 308 309 309 309 308 308 307 307 307 305 304 304 305 306 308 310 312 314 316 317 317 318 319 319 319 320 320
306 306 306 306 306 306 306 306 306 307 307 307 308 308 308 308 308 308 308 308 307 306 306 306 306 305 303 303 304 306 307 309 311 313 314 315 315 316 317 317 318 318
306 306 306 306 306 305 305 305 305 305 306 307 307 308 307 307 307 308 308 307 307 307 306 306 305 304 303 302 303 304 305 306 308 310 311 311 311 312 313 314 315 316
Wind_Speed
9 7 7 7 5 5 6 6 5 5 3 1 2 4 5 7 8 7 6 6 5 6 8 11 14 11 7 7 8 8 8 9 10 10 10 10 10 10 11 12 12 11
9 8 7 7 6 5 4 4 4 3 2 2 1 1 2 3 6 6 4 4 4 6 7 8 11 11 8 8 8 8 8 9 10 10 11 11 11 11 12 12 13 13
9 8 7 7 6 6 5 4 3 3 2 2 2 1 1 1 4 6 6 5 5 6 6 7 9 10 9 9 9 9 9 9 10 11 11 12 13 13 13 13 14 14
10 9 8 7 7 7 6 6 5 4 3 3 3 2 2 2 2 5 7 8 8 7 6 6 8 9 9 9 9 9 10 10 10 10 11 11 13 14 14 14 15 16
11 9 8 8 8 8 8 7 7 7 5 4 4 2 2 2 3 4 6 8 10 10 9 7 7 7 8 8 8 9 10 11 11 10 11 12 12 13 13 13 14 15
11 10 9 9 8 8 8 8 8 8 8 6 5 3 2 3 4 5 6 7 8 10 10 9 7 7 8 8 9 10 11 12 11 11 12 12 13 13 13 13 14 14
11 11 10 9 8 8 8 8 8 8 9 8 8 6 4 5 7 7 8 8 8 8 8 8 7 8 8 8 9 11 11 11 11 12 13 13 13 14 14 14 14 15
11 10 10 9 8 8 7 8 8 7 8 8 9 9 7 8 9 10 9 10 11 10 9 9 8 7 8 8 9 10 11 11 11 12 13 14 14 14 14 14 14 15
10 10 9 9 9 7 7 7 7 7 7 7 8 9 10 10 10 11 11 10 11 12 12 12 10 8 7 7 9 10 10 11 12 12 13 15 15 15 15 15 15 16
10 9 8 8 7 6 5 5 5 6 6 6 6 7 9 10 10 11 12 11 11 11 11 12 13 13 11 10 10 11 11 11 12 13 15 16 16 15 14 15 15 15
9 8 8 7 6 6 5 5 5 5 6 6 6 7 8 9 10 11 12 12 12 11 11 11 13 15 14 13 13 13 12 12 12 13 15 16 18 17 15 15 15 15
9 9 8 7 6 6 6 5 5 5 6 6 6 7 8 8 9 11 12 12 12 12 12 11 11 13 14 15 15 15 14 13 14 14 14 14 16 16 15 14 14 14
9 9 9 8 6 5 5 5 5 6 6 7 7 7 8 8 9 10 11 12 13 13 13 13 13 13 15 15 15 15 15 15 15 15 15 15 14 14 14 14 13 14
10 10 9 8 6 6 5 5 6 6 7 8 8 8 8 8 9 9 10 11 12 12 13 13 14 15 15 16 17 17 17 16 16 16 16 15 14 14 13 13 13 14
9 9 8 8 7 7 6 7 7 8 8 8 8 8 8 8 8 8 9 10 11 11 12 12 13 14 14 15 16 16 17 18 19 17 15 14 13 13 13 14 14 14
9 8 8 8 8 8 8 9 9 9 8 8 8 8 7 7 7 7 7 9 9 9 10 11 12 12 13 15 15 14 13 14 16 18 17 15 15 14 14 14 14 14
8 8 8 8 8 9 10 10 10 8 8 9 8 8 7 6 6 7 6 5 7 7 8 7 7 7 9 12 14 15 14 11 12 16 17 17 17 16 15 14 14 14
8 8 8 8 9 9 10 11 9 8 8 8 8 8 7 6 6 7 6 2 4 5 4 4 3 4 6 9 10 13 14 12 12 14 16 17 17 17 16 15 14 14
8 8 8 8 9 10 10 10 9 8 8 8 8 8 8 7 7 7 8 6 2 3 6 5 3 2 4 6 8 9 11 12 12 13 14 15 16 16 17 17 16 15
8 8 8 8 9 10 10 9 9 10 9 8 7 8 8 8 8 7 8 9 7 7 7 5 2 1 1 3 5 6 8 10 11 12 13 14 14 15 15 16 16 16
8 8 9 9 10 10 9 9 10 10 9 8 7 7 7 7 7 7 7 8 8 7 6 6 5 3 2 2 3 4 5 6 8 10 11 13 13 14 15 15 15 16
8 9 9 10 10 9 9 10 10 10 9 8 7 6 6 6 7 7 7 7 7 6 6 6 7 7 5 4 4 6 5 4 6 8 9 11 12 12 13 14 14 15
8 8 9 9 9 9 10 10 10 10 9 8 7 7 6 7 6 6 6 7 7 7 5 5 7 9 9 6 6 5 4 4 6 7 9 10 11 12 13 13 14 15
7 8 8 9 9 10 10 11 10 10 9 8 7 7 6 6 6 5 6 6 7 7 6 5 6 10 12 10 8 6 2 2 5 6 7 9 10 11 12 12 13 14
7 7 7 8 9 9 10 11 10 10 10 9 7 7 7 6 5 5 5 6 6 7 7 6 6 8 12 12 12 10 6 3 4 5 5 6 8 8 9 11 11 12
7 7 7 7 8 8 9 10 10 10 10 9 7 7 7 7 6 5 5 5 6 6 6 6 6 8 11 12 12 12 10 6 4 5 5 6 8 9 9 10 10 10
Wind_Direction
336 331 328 331 338 350 2 7 2 7 24 39 167 179 183 172 164 159 168 180 182 205 221 227 234 234 210 187 184 188 194 197 202 206 206 210 219 223 222 224 227 228
332 330 320 316 319 326 341 352 355 359 7 10 13 209 216 187 171 167 168 172 186 212 223 228 234 231 217 202 196 197 200 203 204 206 209 213 217 222 223 222 224 226
327 324 317 308 303 305 313 317 318 325 330 333 345 350 318 231 186 188 196 194 195 215 228 232 232 231 223 210 205 207 207 208 207 207 211 216 218 221 222 221 223 228
323 320 314 308 297 291 294 295 289 286 293 305 316 343 348 311 228 207 212 215 213 212 220 230 234 238 231 214 208 214 216 216 213 208 210 217 220 222 223 223 225 227
320 316 312 306 298 292 287 281 276 272 273 283 294 311 331 309 281 245 232 229 224 221 223 228 232 240 237 221 215 219 223 224 220 212 212 217 221 223 224 225 224 223
321 316 312 305 299 296 289 280 274 269 266 266 270 270 253 256 262 255 249 243 230 224 226 229 228 236 238 228 223 223 224 226 221 216 217 219 222 224 224 225 225 225
323 318 312 305 300 296 289 283 276 269 263 259 257 253 240 238 240 241 246 249 242 228 221 222 225 229 231 228 227 225 224 227 226 222 222 223 223 224 224 225 227 230
322 318 311 307 303 294 288 286 283 275 268 261 255 250 244 242 239 235 237 242 245 243 231 223 222 228 234 235 234 232 228 227 229 226 225 225 225 224 223 224 227 231
320 318 312 307 302 295 289 287 287 283 273 263 258 253 248 247 245 240 238 236 239 242 239 235 231 229 235 240 241 242 238 232 231 229 229 227 225 223 222 221 224 229
326 322 315 311 307 303 298 293 292 289 281 272 264 260 254 250 248 246 244 242 240 237 236 237 236 233 234 237 239 239 238 237 235 232 233 231 228 224 222 221 223 226
333 330 325 322 315 311 308 303 299 292 288 286 277 271 265 256 251 249 246 245 244 241 237 233 233 234 235 236 237 236 234 235 235 233 235 237 236 232 227 224 224 226
334 335 333 328 319 313 310 309 314 310 297 291 287 281 278 271 261 256 251 248 246 245 242 235 229 230 233 233 233 232 231 231 232 233 237 241 242 241 237 231 228 230
331 332 332 330 322 310 311 325 337 332 312 300 294 285 277 272 265 258 254 251 249 247 245 240 233 230 231 232 230 228 227 227 228 229 232 237 239 240 242 240 236 236
331 330 331 332 325 309 321 350 350 336 326 319 313 306 293 280 271 261 253 252 250 247 244 243 241 238 235 233 233 233 232 231 230 229 228 231 233 235 238 242 241 240
334 335 334 331 326 322 335 349 342 338 341 335 328 326 318 307 299 281 258 248 246 244 242 242 243 244 242 238 237 237 235 234 234 234 234 233 234 236 237 239 241 242
338 339 339 335 333 334 339 336 329 332 340 336 333 332 323 316 320 312 277 247 239 240 237 234 237 241 243 245 244 244 247 245 237 235 237 238 238 240 240 239 240 243
341 341 342 340 339 339 340 335 329 328 329 331 337 340 334 332 338 332 308 252 234 237 228 220 225 227 230 240 245 245 250 257 248 239 238 239 240 242 242 241 240 242
343 343 343 342 341 339 339 338 336 333 330 331 339 345 345 347 351 349 347 309 234 225 182 156 168 190 208 227 238 236 236 239 244 244 242 240 241 241 243 244 243 241
345 345 345 344 343 340 339 341 343 345 343 339 341 345 350 355 358 3 13 22 59 120 109 111 138 176 209 226 228 227 226 226 233 242 244 243 244 244 245 246 246 246
351 350 347 346 345 342 342 346 350 351 350 348 344 345 354 4 7 10 20 33 56 88 99 97 89 52 272 245 237 231 226 224 230 239 243 246 247 248 249 249 248 249
3 0 356 352 350 348 349 352 354 353 353 354 353 350 354 4 10 16 26 38 51 67 81 76 55 25 353 313 283 266 243 228 234 242 244 246 248 248 249 250 251 250
14 13 8 3 359 356 358 360 358 357 358 357 356 357 0 5 12 21 29 36 44 53 61 53 32 13 3 349 316 299 286 263 256 255 253 252 252 251 251 252 252 251
16 19 16 13 10 6 6 7 5 4 5 3 1 3 7 10 14 21 27 33 36 40 48 43 16 1 356 349 332 316 297 282 277 266 261 262 259 258 258 256 255 255
17 18 19 20 20 18 14 11 10 10 9 6 5 7 9 12 17 22 26 31 32 31 39 47 19 359 358 3 359 351 345 296 294 276 265 271 268 263 264 262 261 261
20 19 21 23 22 21 17 11 10 10 8 9 10 12 14 15 19 26 28 30 33 33 34 40 29 5 5 14 15 13 28 30 327 304 285 285 284 280 279 276 273 272
25 20 20 19 16 13 10 8 9 7 5 7 9 13 19 20 21 28 33 32 33 34 31 35 36 17 9 16 24 27 38 48 14 338 323 306 298 293 291 288 285 284